| time (UTC) | temp F | wind direction | speed MPH | gust MPH | rain 1hr in | rain 24hr in | rain mn in | humidity % | barometer mb |
| 20260510004255 | 64 | 200 | 4.0 | 12.0 | 0.00 | 0.00 | 0.00 | 83 | 1013.4 |
| 20260510003755 | 64 | 199 | 4.0 | 11.0 | 0.00 | 0.00 | 0.00 | 82 | 1013.2 |
| 20260510003255 | 64 | 199 | 3.0 | 11.0 | 0.00 | 0.00 | 0.00 | 82 | 1013.1 |
| 20260510002755 | 64 | 199 | 4.0 | 11.0 | 0.00 | 0.00 | 0.00 | 81 | 1013.1 |
| 20260510002255 | 64 | 199 | 3.0 | 12.0 | 0.00 | 0.00 | 0.00 | 81 | 1013.1 |
| 20260510001755 | 64 | 198 | 2.0 | 12.0 | 0.00 | 0.00 | 0.00 | 80 | 1013.0 |
| 20260510001255 | 64 | 200 | 4.0 | 9.0 | 0.00 | 0.00 | 0.00 | 80 | 1013.2 |
| 20260510000755 | 65 | 199 | 4.0 | 10.0 | 0.00 | 0.00 | 0.00 | 79 | 1013.1 |
| 20260510000256 | 65 | 199 | 3.0 | 10.0 | 0.00 | 0.00 | 0.00 | 79 | 1013.0 |
| 20260509235755 | 65 | 201 | 5.0 | 10.0 | 0.00 | 0.00 | 0.00 | 79 | 1012.9 |
| 20260509235257 | 65 | 200 | 3.0 | 9.0 | 0.00 | 0.00 | 0.00 | 78 | 1013.0 |
| 20260509234755 | 65 | 200 | 4.0 | 11.0 | 0.00 | 0.00 | 0.00 | 78 | 1013.0 |
| 20260509234255 | 65 | 198 | 4.0 | 11.0 | 0.00 | 0.00 | 0.00 | 78 | 1012.9 |
| 20260509233755 | 65 | 196 | 4.0 | 10.0 | 0.00 | 0.00 | 0.00 | 77 | 1013.0 |
| 20260509233255 | 65 | 197 | 4.0 | 9.0 | 0.00 | 0.00 | 0.00 | 76 | 1012.9 |
| 20260509232755 | 65 | 195 | 3.0 | 8.0 | 0.00 | 0.00 | 0.00 | 76 | 1012.8 |
| 20260509232255 | 65 | 192 | 2.0 | 8.0 | 0.00 | 0.00 | 0.00 | 76 | 1011.8 |
| 20260509231755 | 66 | 196 | 3.0 | 8.0 | 0.00 | 0.00 | 0.00 | 76 | 1011.7 |
| 20260509231254 | 66 | 193 | 3.0 | 7.0 | 0.00 | 0.00 | 0.00 | 75 | 1011.7 |
| 20260509230754 | 66 | 204 | 3.0 | 8.0 | 0.00 | 0.00 | 0.00 | 74 | 1011.8 |
| 20260509230255 | 66 | 200 | 3.0 | 8.0 | 0.00 | 0.00 | 0.00 | 74 | 1011.6 |
| 20260509225755 | 66 | 193 | 1.0 | 7.0 | 0.00 | 0.00 | 0.00 | 74 | 1011.6 |
| 20260509225255 | 67 | 193 | 1.0 | 6.0 | 0.00 | 0.00 | 0.00 | 72 | 1011.5 |
| 20260509224755 | 67 | 193 | 1.0 | 6.0 | 0.00 | 0.00 | 0.00 | 72 | 1011.4 |
| 20260509224257 | 67 | 0 | 0.0 | 8.0 | 0.00 | 0.00 | 0.00 | 71 | 1011.4 |
| 20260509223755 | 67 | 0 | 0.0 | 8.0 | 0.00 | 0.00 | 0.00 | 71 | 1011.4 |
| 20260509223257 | 67 | 197 | 1.0 | 5.0 | 0.00 | 0.00 | 0.00 | 71 | 1011.3 |
| 20260509222544 | 67 | 197 | 1.0 | 8.0 | 0.00 | 0.00 | 0.00 | 71 | 1011.5 |
| 20260509222044 | 67 | 197 | 3.0 | 8.0 | 0.00 | 0.00 | 0.00 | 70 | 1011.3 |
| 20260509221544 | 67 | 0 | 0.0 | 3.0 | 0.00 | 0.00 | 0.00 | 70 | 1011.4 |
| 20260509221044 | 68 | 0 | 0.0 | 8.0 | 0.00 | 0.00 | 0.00 | 70 | 1011.5 |
| 20260509220544 | 68 | 196 | 1.0 | 8.0 | 0.00 | 0.00 | 0.00 | 70 | 1011.4 |
| 20260509220044 | 67 | 199 | 3.0 | 8.0 | 0.00 | 0.00 | 0.00 | 69 | 1011.4 |
| 20260509215544 | 67 | 0 | 0.0 | 7.0 | 0.00 | 0.00 | 0.00 | 70 | 1011.5 |
| 20260509215044 | 67 | 199 | 2.0 | 7.0 | 0.00 | 0.00 | 0.00 | 69 | 1011.5 |
| 20260509214544 | 67 | 199 | 2.0 | 8.0 | 0.00 | 0.00 | 0.00 | 69 | 1011.5 |
| 20260509214044 | 67 | 199 | 3.0 | 8.0 | 0.00 | 0.00 | 0.00 | 69 | 1011.3 |
| 20260509213544 | 67 | 199 | 1.0 | 6.0 | 0.00 | 0.00 | 0.00 | 69 | 1011.1 |
| 20260509213044 | 68 | 199 | 1.0 | 7.0 | 0.00 | 0.00 | 0.00 | 68 | 1011.2 |
| 20260509212544 | 68 | 199 | 3.0 | 9.0 | 0.00 | 0.00 | 0.00 | 68 | 1011.3 |
| 20260509212044 | 68 | 194 | 4.0 | 9.0 | 0.00 | 0.00 | 0.00 | 67 | 1011.4 |
| 20260509211544 | 69 | 191 | 3.0 | 6.0 | 0.00 | 0.00 | 0.00 | 67 | 1011.3 |
| 20260509211044 | 69 | 189 | 2.0 | 6.0 | 0.00 | 0.00 | 0.00 | 66 | 1011.3 |
| 20260509210051 | 69 | 200 | 3.0 | 9.0 | 0.00 | 0.00 | 0.00 | 68 | 1010.9 |
| 20260509205551 | 69 | 204 | 3.0 | 9.0 | 0.00 | 0.00 | 0.00 | 66 | 1010.9 |
| 20260509205051 | 69 | 198 | 4.0 | 9.0 | 0.00 | 0.00 | 0.00 | 67 | 1010.9 |
| 20260509204551 | 69 | 189 | 3.0 | 8.0 | 0.00 | 0.00 | 0.00 | 66 | 1010.9 |
| 20260509204052 | 69 | 187 | 3.0 | 7.0 | 0.00 | 0.00 | 0.00 | 64 | 1010.9 |
| 20260509203551 | 69 | 185 | 2.0 | 7.0 | 0.00 | 0.00 | 0.00 | 66 | 1011.0 |
| 20260509203051 | 70 | 185 | 3.0 | 7.0 | 0.00 | 0.00 | 0.00 | 66 | 1011.0 |
| 20260509202420 | 70 | 182 | 3.0 | 8.0 | 0.00 | 0.00 | 0.00 | 66 | 1011.0 |
| 20260509201920 | 70 | 199 | 3.0 | 8.0 | 0.00 | 0.00 | 0.00 | 65 | 1011.0 |
| 20260509201421 | 70 | 195 | 2.0 | 9.0 | 0.00 | 0.00 | 0.00 | 65 | 1011.0 |
| 20260509200921 | 69 | 0 | 0.0 | 9.0 | 0.00 | 0.00 | 0.00 | 63 | 1011.0 |
| 20260509200421 | 70 | 190 | 3.0 | 11.0 | 0.00 | 0.00 | 0.00 | 62 | 1011.1 |
| 20260509195920 | 70 | 203 | 5.0 | 11.0 | 0.00 | 0.00 | 0.00 | 61 | 1011.1 |
| 20260509195420 | 70 | 193 | 3.0 | 13.0 | 0.00 | 0.00 | 0.00 | 62 | 1011.1 |
| 20260509194920 | 70 | 196 | 5.0 | 13.0 | 0.00 | 0.00 | 0.00 | 62 | 1011.1 |
| 20260509194420 | 70 | 196 | 3.0 | 12.0 | 0.00 | 0.00 | 0.00 | 66 | 1011.3 |
| 20260509193920 | 68 | 199 | 2.0 | 10.0 | 0.00 | 0.00 | 0.00 | 65 | 1011.4 |
| 20260509193420 | 68 | 198 | 4.0 | 10.0 | 0.00 | 0.00 | 0.00 | 64 | 1011.5 |
| 20260509192920 | 70 | 194 | 3.0 | 12.0 | 0.00 | 0.00 | 0.00 | 62 | 1011.5 |
| 20260509192420 | 71 | 190 | 4.0 | 12.0 | 0.00 | 0.00 | 0.00 | 62 | 1011.5 |
| 20260509191920 | 70 | 193 | 5.0 | 12.0 | 0.00 | 0.00 | 0.00 | 64 | 1011.6 |
| 20260509191420 | 70 | 192 | 4.0 | 10.0 | 0.00 | 0.00 | 0.00 | 63 | 1011.6 |
| 20260509190920 | 70 | 184 | 3.0 | 10.0 | 0.00 | 0.00 | 0.00 | 61 | 1011.6 |
| 20260509190420 | 70 | 176 | 3.0 | 10.0 | 0.00 | 0.00 | 0.00 | 61 | 1011.5 |
| 20260509185920 | 70 | 185 | 2.0 | 7.0 | 0.00 | 0.00 | 0.00 | 62 | 1011.4 |
| 20260509185420 | 69 | 192 | 1.0 | 7.0 | 0.00 | 0.00 | 0.00 | 63 | 1011.4 |
| 20260509184558 | 68 | 201 | 4.0 | 9.0 | 0.00 | 0.00 | 0.00 | 64 | 1011.5 |
| 20260509184057 | 69 | 196 | 2.0 | 8.0 | 0.00 | 0.00 | 0.00 | 64 | 1011.7 |
| 20260509183558 | 68 | 195 | 3.0 | 8.0 | 0.00 | 0.00 | 0.00 | 66 | 1011.8 |
| 20260509183057 | 68 | 186 | 3.0 | 12.0 | 0.00 | 0.00 | 0.00 | 64 | 1011.9 |
| 20260509182558 | 68 | 201 | 3.0 | 12.0 | 0.00 | 0.00 | 0.00 | 66 | 1011.8 |
| 20260509182058 | 68 | 202 | 4.0 | 9.0 | 0.00 | 0.00 | 0.00 | 62 | 1012.0 |
| 20260509181557 | 68 | 171 | 2.0 | 9.0 | 0.00 | 0.00 | 0.00 | 66 | 1012.0 |
| 20260509181057 | 67 | 190 | 3.0 | 8.0 | 0.00 | 0.00 | 0.00 | 68 | 1012.2 |
| 20260509180557 | 67 | 196 | 3.0 | 10.0 | 0.00 | 0.00 | 0.00 | 67 | 1012.2 |
| 20260509180057 | 67 | 204 | 1.0 | 10.0 | 0.00 | 0.00 | 0.00 | 69 | 1012.2 |
| 20260509175558 | 67 | 197 | 1.0 | 7.0 | 0.00 | 0.00 | 0.00 | 70 | 1012.4 |
| 20260509175058 | 66 | 200 | 2.0 | 9.0 | 0.00 | 0.00 | 0.00 | 67 | 1012.6 |
| 20260509174558 | 66 | 198 | 1.0 | 9.0 | 0.00 | 0.00 | 0.00 | 68 | 1012.6 |
| 20260509174059 | 66 | 204 | 1.0 | 9.0 | 0.00 | 0.00 | 0.00 | 69 | 1012.5 |
| 20260509173557 | 66 | 0 | 0.0 | 10.0 | 0.00 | 0.00 | 0.00 | 70 | 1012.8 |
| 20260509173057 | 67 | 197 | 4.0 | 10.0 | 0.00 | 0.00 | 0.00 | 67 | 1012.6 |
| 20260509172557 | 68 | 202 | 1.0 | 7.0 | 0.00 | 0.00 | 0.00 | 67 | 1012.6 |
| 20260509172057 | 68 | 197 | 2.0 | 7.0 | 0.00 | 0.00 | 0.00 | 66 | 1012.8 |
| 20260509171557 | 67 | 200 | 2.0 | 6.0 | 0.00 | 0.00 | 0.00 | 67 | 1012.6 |
| 20260509171057 | 66 | 207 | 1.0 | 9.0 | 0.00 | 0.00 | 0.00 | 70 | 1012.7 |
| 20260509170557 | 66 | 0 | 0.0 | 9.0 | 0.00 | 0.00 | 0.00 | 70 | 1012.9 |
| 20260509170057 | 66 | 196 | 2.0 | 9.0 | 0.00 | 0.00 | 0.00 | 72 | 1013.0 |
| 20260509165557 | 64 | 190 | 2.0 | 11.0 | 0.00 | 0.00 | 0.00 | 72 | 1013.0 |
| 20260509165059 | 65 | 199 | 3.0 | 11.0 | 0.00 | 0.00 | 0.00 | 72 | 1013.0 |
| 20260509164558 | 65 | 197 | 5.0 | 11.0 | 0.00 | 0.00 | 0.00 | 73 | 1013.1 |
| 20260509163941 | 64 | 0 | 0.0 | 9.0 | 0.00 | 0.00 | 0.00 | 74 | 1013.2 |
| 20260509163441 | 63 | 197 | 1.0 | 9.0 | 0.00 | 0.00 | 0.00 | 78 | 1013.2 |
| 20260509162941 | 64 | 198 | 2.0 | 9.0 | 0.00 | 0.00 | 0.00 | 75 | 1013.4 |
| 20260509162441 | 64 | 185 | 3.0 | 11.0 | 0.00 | 0.00 | 0.00 | 75 | 1013.3 |
| 20260509161941 | 64 | 193 | 3.0 | 11.0 | 0.00 | 0.00 | 0.00 | 76 | 1013.3 |
| 20260509161441 | 63 | 199 | 3.0 | 10.0 | 0.00 | 0.00 | 0.00 | 79 | 1013.3 |
| 20260509160941 | 62 | 188 | 3.0 | 10.0 | 0.00 | 0.00 | 0.00 | 79 | 1013.2 |
| 20260509160441 | 62 | 192 | 4.0 | 10.0 | 0.00 | 0.00 | 0.00 | 77 | 1013.3 |
| 20260509155941 | 63 | 195 | 4.0 | 11.0 | 0.00 | 0.00 | 0.00 | 76 | 1013.3 |
| 20260509155441 | 64 | 194 | 3.0 | 11.0 | 0.00 | 0.00 | 0.00 | 75 | 1013.3 |
| 20260509154941 | 63 | 180 | 3.0 | 10.0 | 0.00 | 0.00 | 0.00 | 78 | 1013.2 |
| 20260509154441 | 63 | 193 | 4.0 | 9.0 | 0.00 | 0.00 | 0.00 | 77 | 1013.2 |
| 20260509153941 | 63 | 187 | 4.0 | 9.0 | 0.00 | 0.00 | 0.00 | 79 | 1013.2 |
| 20260509153441 | 62 | 182 | 2.0 | 8.0 | 0.00 | 0.00 | 0.00 | 78 | 1013.2 |
| 20260509152941 | 62 | 181 | 1.0 | 8.0 | 0.00 | 0.00 | 0.00 | 78 | 1013.2 |
| 20260509152441 | 62 | 183 | 1.0 | 13.0 | 0.00 | 0.00 | 0.00 | 80 | 1013.3 |
| 20260509151941 | 62 | 188 | 4.0 | 13.0 | 0.00 | 0.00 | 0.00 | 79 | 1013.3 |
| 20260509151441 | 63 | 191 | 4.0 | 14.0 | 0.00 | 0.00 | 0.00 | 78 | 1013.5 |
| 20260509150941 | 62 | 192 | 4.0 | 14.0 | 0.00 | 0.00 | 0.00 | 76 | 1013.5 |
| 20260509150441 | 62 | 184 | 2.0 | 10.0 | 0.00 | 0.00 | 0.00 | 78 | 1013.5 |
| 20260509145941 | 62 | 186 | 3.0 | 11.0 | 0.00 | 0.00 | 0.00 | 79 | 1013.5 |
| 20260509145441 | 61 | 189 | 3.0 | 16.0 | 0.00 | 0.00 | 0.00 | 80 | 1013.4 |
| 20260509144941 | 61 | 177 | 6.0 | 17.0 | 0.00 | 0.00 | 0.00 | 79 | 1013.3 |
| 20260509144441 | 61 | 178 | 4.0 | 17.0 | 0.00 | 0.00 | 0.00 | 80 | 1013.5 |
| 20260509143941 | 61 | 177 | 4.0 | 15.0 | 0.00 | 0.00 | 0.00 | 81 | 1013.6 |
| 20260509143441 | 60 | 177 | 2.0 | 8.0 | 0.00 | 0.00 | 0.00 | 83 | 1013.6 |
| 20260509142941 | 60 | 0 | 0.0 | 10.0 | 0.00 | 0.00 | 0.00 | 83 | 1013.4 |
| 20260509142529 | 60 | 176 | 3.0 | 11.0 | 0.00 | 0.00 | 0.00 | 82 | 1013.5 |
| 20260509142441 | 60 | 176 | 3.0 | 11.0 | 0.00 | 0.00 | 0.00 | 82 | 1013.5 |
| 20260509141940 | 60 | 182 | 2.0 | 11.0 | 0.00 | 0.00 | 0.00 | 82 | 1013.5 |
| 20260509141441 | 59 | 188 | 3.0 | 15.0 | 0.00 | 0.00 | 0.00 | 82 | 1013.4 |
| 20260509140941 | 59 | 180 | 3.0 | 15.0 | 0.00 | 0.00 | 0.00 | 83 | 1013.4 |
| 20260509140441 | 58 | 178 | 4.0 | 14.0 | 0.00 | 0.00 | 0.00 | 84 | 1013.3 |
| 20260509135943 | 58 | 197 | 4.0 | 10.0 | 0.00 | 0.00 | 0.00 | 85 | 1013.2 |
| 20260509135441 | 58 | 192 | 6.0 | 12.0 | 0.00 | 0.00 | 0.00 | 83 | 1013.5 |
| 20260509134940 | 58 | 183 | 4.0 | 12.0 | 0.00 | 0.00 | 0.00 | 83 | 1013.5 |
| 20260509134440 | 58 | 183 | 2.0 | 9.0 | 0.00 | 0.00 | 0.00 | 83 | 1013.5 |
| 20260509133940 | 58 | 176 | 5.0 | 9.0 | 0.00 | 0.00 | 0.00 | 83 | 1013.4 |
| 20260509133440 | 58 | 188 | 3.0 | 9.0 | 0.00 | 0.00 | 0.00 | 84 | 1013.6 |
| 20260509132941 | 57 | 199 | 4.0 | 11.0 | 0.00 | 0.00 | 0.00 | 84 | 1013.9 |
| 20260509132441 | 57 | 187 | 5.0 | 11.0 | 0.00 | 0.00 | 0.00 | 83 | 1013.9 |
| 20260509131940 | 57 | 192 | 3.0 | 9.0 | 0.00 | 0.00 | 0.00 | 85 | 1014.0 |
| 20260509131441 | 56 | 188 | 2.0 | 9.0 | 0.00 | 0.00 | 0.00 | 86 | 1014.0 |
| 20260509130941 | 56 | 195 | 3.0 | 10.0 | 0.00 | 0.00 | 0.00 | 85 | 1014.2 |
| 20260509130440 | 56 | 177 | 5.0 | 10.0 | 0.00 | 0.00 | 0.00 | 84 | 1014.5 |
| 20260509125940 | 56 | 174 | 4.0 | 10.0 | 0.00 | 0.00 | 0.00 | 85 | 1014.6 |
| 20260509125442 | 55 | 202 | 3.0 | 10.0 | 0.00 | 0.00 | 0.00 | 85 | 1014.7 |
| 20260509124940 | 54 | 0 | 0.0 | 10.0 | 0.00 | 0.00 | 0.00 | 87 | 1014.6 |
| 20260509124442 | 54 | 198 | 2.0 | 13.0 | 0.00 | 0.00 | 0.00 | 86 | 1014.7 |
| 20260509123941 | 54 | 197 | 1.0 | 13.0 | 0.00 | 0.00 | 0.00 | 86 | 1014.7 |
| 20260509123440 | 54 | 199 | 1.0 | 11.0 | 0.00 | 0.00 | 0.00 | 86 | 1014.7 |
| 20260509122944 | 53 | 0 | 0.0 | 10.0 | 0.00 | 0.00 | 0.00 | 85 | 1014.9 |
| 20260509122440 | 53 | 0 | 0.0 | 5.0 | 0.00 | 0.00 | 0.00 | 87 | 1014.8 |
| 20260509121941 | 53 | 0 | 0.0 | 5.0 | 0.00 | 0.00 | 0.00 | 88 | 1014.7 |
| 20260509121441 | 52 | 0 | 0.0 | 5.0 | 0.00 | 0.00 | 0.00 | 88 | 1014.6 |
| 20260509120943 | 52 | 0 | 0.0 | 1.0 | 0.00 | 0.00 | 0.00 | 87 | 1014.5 |
| 20260509120440 | 52 | 0 | 0.0 | 4.0 | 0.00 | 0.00 | 0.00 | 87 | 1014.3 |
| 20260509115942 | 52 | 0 | 0.0 | 7.0 | 0.00 | 0.00 | 0.00 | 87 | 1014.2 |
| 20260509115441 | 52 | 0 | 0.0 | 7.0 | 0.00 | 0.00 | 0.00 | 87 | 1014.3 |
| 20260509115109 | 52 | 201 | 3.0 | 11.0 | 0.00 | 0.00 | 0.00 | 86 | 1014.2 |
| 20260509114837 | 52 | 201 | 3.0 | 11.0 | 0.00 | 0.00 | 0.00 | 86 | 1014.2 |
| 20260509114338 | 52 | 0 | 0.0 | 8.0 | 0.00 | 0.00 | 0.00 | 86 | 1014.1 |
| 20260509113837 | 52 | 0 | 0.0 | 7.0 | 0.00 | 0.00 | 0.00 | 86 | 1014.2 |
| 20260509113623 | 52 | 202 | 1.0 | 7.0 | 0.00 | 0.00 | 0.00 | 86 | 1014.4 |
| 20260509113336 | 52 | 202 | 1.0 | 7.0 | 0.00 | 0.00 | 0.00 | 86 | 1014.4 |
| 20260509112836 | 52 | 200 | 1.0 | 6.0 | 0.00 | 0.00 | 0.00 | 86 | 1014.3 |
| 20260509112339 | 51 | 202 | 1.0 | 7.0 | 0.00 | 0.00 | 0.00 | 85 | 1014.2 |
| 20260509112336 | 52 | 0 | 0.0 | 5.0 | 0.00 | 0.00 | 0.00 | 85 | 1014.2 |
| 20260509111837 | 51 | 202 | 1.0 | 7.0 | 0.00 | 0.00 | 0.00 | 85 | 1014.2 |
| 20260509111337 | 51 | 0 | 0.0 | 7.0 | 0.00 | 0.00 | 0.00 | 85 | 1014.1 |
| 20260509110836 | 51 | 202 | 1.0 | 8.0 | 0.00 | 0.00 | 0.00 | 85 | 1014.0 |
| 20260509110340 | 51 | 201 | 1.0 | 8.0 | 0.00 | 0.00 | 0.00 | 84 | 1013.9 |
| 20260509105836 | 52 | 202 | 3.0 | 8.0 | 0.00 | 0.00 | 0.00 | 84 | 1013.9 |
| 20260509105336 | 52 | 202 | 1.0 | 6.0 | 0.00 | 0.00 | 0.00 | 84 | 1014.0 |
| 20260509104836 | 52 | 201 | 1.0 | 6.0 | 0.00 | 0.00 | 0.00 | 83 | 1014.0 |
| 20260509104336 | 52 | 202 | 2.0 | 7.0 | 0.00 | 0.00 | 0.00 | 83 | 1013.9 |
| 20260509103836 | 52 | 0 | 0.0 | 8.0 | 0.00 | 0.00 | 0.00 | 83 | 1013.9 |
| 20260509103336 | 52 | 202 | 1.0 | 8.0 | 0.00 | 0.00 | 0.00 | 82 | 1013.8 |
| 20260509102836 | 52 | 202 | 2.0 | 9.0 | 0.00 | 0.00 | 0.00 | 82 | 1013.7 |
| 20260509102336 | 52 | 199 | 2.0 | 9.0 | 0.00 | 0.00 | 0.00 | 82 | 1013.6 |
| 20260509101836 | 52 | 199 | 2.0 | 8.0 | 0.00 | 0.00 | 0.00 | 82 | 1013.6 |
| 20260509101336 | 52 | 200 | 4.0 | 8.0 | 0.00 | 0.00 | 0.00 | 82 | 1013.4 |
| 20260509100836 | 52 | 199 | 2.0 | 9.0 | 0.00 | 0.00 | 0.00 | 81 | 1013.4 |
| 20260509100336 | 53 | 199 | 3.0 | 9.0 | 0.00 | 0.00 | 0.00 | 81 | 1013.3 |
| 20260509095836 | 53 | 202 | 1.0 | 7.0 | 0.00 | 0.00 | 0.00 | 80 | 1013.4 |
| 20260509095336 | 53 | 203 | 1.0 | 7.0 | 0.00 | 0.00 | 0.00 | 80 | 1013.2 |
| 20260509094836 | 53 | 0 | 0.0 | 12.0 | 0.00 | 0.00 | 0.00 | 79 | 1013.2 |
| 20260509094336 | 53 | 202 | 4.0 | 12.0 | 0.00 | 0.00 | 0.00 | 79 | 1013.3 |
| 20260509093836 | 54 | 195 | 2.0 | 9.0 | 0.00 | 0.00 | 0.00 | 79 | 1013.4 |
| 20260509093336 | 54 | 197 | 2.0 | 9.0 | 0.00 | 0.00 | 0.00 | 78 | 1013.5 |
| 20260509092836 | 54 | 195 | 2.0 | 9.0 | 0.00 | 0.00 | 0.00 | 78 | 1013.6 |
| 20260509092336 | 54 | 213 | 2.0 | 12.0 | 0.00 | 0.00 | 0.00 | 78 | 1013.4 |
| 20260509091836 | 53 | 207 | 1.0 | 12.0 | 0.00 | 0.00 | 0.00 | 78 | 1013.5 |
| 20260509091339 | 53 | 206 | 3.0 | 11.0 | 0.00 | 0.00 | 0.00 | 79 | 1013.5 |
| 20260509090836 | 54 | 199 | 4.0 | 11.0 | 0.00 | 0.00 | 0.00 | 79 | 1013.4 |
| 20260509090336 | 54 | 202 | 5.0 | 17.0 | 0.00 | 0.00 | 0.00 | 77 | 1013.5 |
| 20260509085836 | 54 | 203 | 8.0 | 17.0 | 0.00 | 0.00 | 0.00 | 77 | 1013.5 |
| 20260509085336 | 54 | 197 | 4.0 | 16.0 | 0.00 | 0.00 | 0.00 | 77 | 1013.6 |
| 20260509084837 | 54 | 197 | 5.0 | 16.0 | 0.00 | 0.00 | 0.00 | 78 | 1013.7 |
| 20260509084337 | 54 | 203 | 4.0 | 13.0 | 0.00 | 0.00 | 0.00 | 78 | 1013.8 |
| 20260509083836 | 54 | 197 | 3.0 | 13.0 | 0.00 | 0.00 | 0.00 | 78 | 1013.7 |
| 20260509083227 | 54 | 201 | 4.0 | 14.0 | 0.00 | 0.00 | 0.00 | 78 | 1013.8 |
| 20260509082725 | 54 | 198 | 5.0 | 14.0 | 0.00 | 0.00 | 0.00 | 78 | 1013.8 |
| 20260509082226 | 54 | 201 | 5.0 | 14.0 | 0.00 | 0.00 | 0.00 | 77 | 1013.9 |
| 20260509081725 | 54 | 199 | 2.0 | 12.0 | 0.00 | 0.00 | 0.00 | 77 | 1013.9 |
| 20260509081225 | 54 | 203 | 3.0 | 12.0 | 0.00 | 0.00 | 0.00 | 77 | 1013.9 |
| 20260509080725 | 54 | 197 | 3.0 | 10.0 | 0.00 | 0.00 | 0.00 | 77 | 1013.9 |
| 20260509080225 | 54 | 196 | 2.0 | 8.0 | 0.00 | 0.00 | 0.00 | 76 | 1014.0 |
| 20260509075725 | 54 | 206 | 2.0 | 8.0 | 0.00 | 0.00 | 0.00 | 76 | 1014.1 |
| 20260509075228 | 54 | 194 | 1.0 | 7.0 | 0.00 | 0.00 | 0.00 | 76 | 1014.1 |
| 20260509074725 | 54 | 199 | 1.0 | 7.0 | 0.00 | 0.00 | 0.00 | 76 | 1014.1 |
| 20260509074225 | 54 | 219 | 1.0 | 7.0 | 0.00 | 0.00 | 0.00 | 76 | 1014.1 |
| 20260509073725 | 54 | 200 | 1.0 | 9.0 | 0.00 | 0.00 | 0.00 | 76 | 1014.1 |
| 20260509073227 | 54 | 202 | 2.0 | 11.0 | 0.00 | 0.00 | 0.00 | 77 | 1014.1 |
| 20260509072725 | 54 | 203 | 3.0 | 11.0 | 0.00 | 0.00 | 0.00 | 77 | 1014.3 |
| 20260509072226 | 54 | 198 | 3.0 | 12.0 | 0.00 | 0.00 | 0.00 | 77 | 1014.3 |
| 20260509071725 | 54 | 204 | 4.0 | 13.0 | 0.00 | 0.00 | 0.00 | 77 | 1014.3 |
| 20260509071226 | 54 | 199 | 3.0 | 13.0 | 0.00 | 0.00 | 0.00 | 77 | 1014.3 |
| 20260509070725 | 54 | 198 | 5.0 | 12.0 | 0.00 | 0.00 | 0.00 | 78 | 1014.3 |
| 20260509070226 | 54 | 195 | 5.0 | 12.0 | 0.00 | 0.00 | 0.00 | 78 | 1014.3 |
| 20260509065725 | 54 | 203 | 2.0 | 14.0 | 0.00 | 0.00 | 0.00 | 78 | 1014.3 |
| 20260509065227 | 54 | 211 | 2.0 | 14.0 | 0.00 | 0.00 | 0.00 | 78 | 1014.5 |
| 20260509064725 | 53 | 198 | 3.0 | 10.0 | 0.00 | 0.00 | 0.00 | 79 | 1014.6 |
| 20260509064225 | 53 | 202 | 5.0 | 11.0 | 0.00 | 0.00 | 0.00 | 79 | 1014.6 |
| 20260509063725 | 54 | 199 | 5.0 | 11.0 | 0.00 | 0.00 | 0.00 | 78 | 1014.8 |
| 20260509063226 | 54 | 203 | 4.0 | 11.0 | 0.00 | 0.00 | 0.00 | 77 | 1014.8 |
| 20260509062725 | 54 | 200 | 4.0 | 12.0 | 0.00 | 0.00 | 0.00 | 77 | 1014.9 |
| 20260509062226 | 54 | 204 | 4.0 | 12.0 | 0.00 | 0.00 | 0.00 | 77 | 1015.0 |
| 20260509061725 | 54 | 201 | 6.0 | 11.0 | 0.00 | 0.00 | 0.00 | 76 | 1015.0 |
| 20260509061225 | 54 | 196 | 3.0 | 11.0 | 0.00 | 0.00 | 0.00 | 77 | 1015.0 |
| 20260509060725 | 54 | 201 | 4.0 | 16.0 | 0.00 | 0.00 | 0.00 | 76 | 1015.1 |
| 20260509060226 | 54 | 199 | 6.0 | 16.0 | 0.00 | 0.00 | 0.00 | 76 | 1015.2 |
| 20260509055726 | 54 | 210 | 5.0 | 14.0 | 0.00 | 0.00 | 0.00 | 75 | 1015.2 |
| 20260509055228 | 54 | 201 | 4.0 | 11.0 | 0.00 | 0.00 | 0.00 | 74 | 1015.3 |
| 20260509054725 | 54 | 197 | 5.0 | 13.0 | 0.00 | 0.00 | 0.00 | 73 | 1015.4 |
| 20260509054225 | 54 | 200 | 1.0 | 24.0 | 0.00 | 0.00 | 0.00 | 73 | 1015.5 |
| 20260509053726 | 54 | 198 | 8.0 | 24.0 | 0.00 | 0.00 | 0.00 | 72 | 1015.6 |
| 20260509053228 | 54 | 206 | 3.0 | 13.0 | 0.00 | 0.00 | 0.00 | 72 | 1015.7 |
| 20260509052725 | 54 | 203 | 3.0 | 11.0 | 0.00 | 0.00 | 0.00 | 71 | 1015.8 |
| 20260509052225 | 54 | 196 | 4.0 | 13.0 | 0.00 | 0.00 | 0.00 | 70 | 1015.9 |
| 20260509051725 | 54 | 201 | 5.0 | 17.0 | 0.00 | 0.00 | 0.00 | 70 | 1015.9 |
| 20260509051227 | 55 | 194 | 6.0 | 21.0 | 0.00 | 0.00 | 0.00 | 69 | 1016.0 |
| 20260509050725 | 55 | 199 | 11.0 | 22.0 | 0.00 | 0.00 | 0.00 | 68 | 1015.8 |
| 20260509050228 | 55 | 199 | 12.0 | 25.0 | 0.00 | 0.00 | 0.00 | 68 | 1015.7 |
| 20260509045727 | 55 | 199 | 12.0 | 25.0 | 0.00 | 0.00 | 0.00 | 67 | 1015.9 |
| 20260509045227 | 56 | 201 | 12.0 | 20.0 | 0.00 | 0.00 | 0.00 | 66 | 1015.9 |
| 20260509044725 | 56 | 201 | 9.0 | 21.0 | 0.00 | 0.00 | 0.00 | 66 | 1015.9 |
| 20260509044226 | 56 | 199 | 13.0 | 21.0 | 0.00 | 0.00 | 0.00 | 66 | 1016.0 |
| 20260509043725 | 56 | 195 | 7.0 | 19.0 | 0.00 | 0.00 | 0.00 | 67 | 1015.9 |
| 20260509043229 | 56 | 201 | 9.0 | 18.0 | 0.00 | 0.00 | 0.00 | 68 | 1016.0 |
| 20260509042725 | 56 | 195 | 9.0 | 17.0 | 0.00 | 0.00 | 0.00 | 68 | 1015.9 |
| 20260509042227 | 56 | 198 | 7.0 | 13.0 | 0.00 | 0.00 | 0.00 | 68 | 1016.0 |
| 20260509041725 | 55 | 202 | 6.0 | 14.0 | 0.00 | 0.00 | 0.00 | 67 | 1016.1 |
| 20260509041226 | 55 | 197 | 8.0 | 14.0 | 0.00 | 0.00 | 0.00 | 66 | 1015.1 |
| 20260509040726 | 56 | 198 | 8.0 | 15.0 | 0.00 | 0.00 | 0.00 | 65 | 1015.2 |
| 20260509040226 | 56 | 198 | 5.0 | 15.0 | 0.00 | 0.00 | 0.00 | 64 | 1015.3 |
| 20260509035542 | 56 | 200 | 14.0 | 27.0 | 0.00 | 0.00 | 0.00 | 63 | 1015.3 |
| 20260509035042 | 56 | 199 | 12.0 | 27.0 | 0.00 | 0.00 | 0.00 | 62 | 1015.4 |
| 20260509034542 | 56 | 199 | 12.0 | 24.0 | 0.00 | 0.00 | 0.00 | 62 | 1015.3 |
| 20260509033933 | 56 | 199 | 12.0 | 22.0 | 0.00 | 0.00 | 0.00 | 61 | 1015.4 |
| 20260509033433 | 56 | 200 | 12.0 | 24.0 | 0.00 | 0.00 | 0.00 | 61 | 1015.4 |
| 20260509032933 | 56 | 194 | 13.0 | 24.0 | 0.00 | 0.00 | 0.00 | 61 | 1015.4 |
| 20260509032433 | 56 | 201 | 11.0 | 24.0 | 0.00 | 0.00 | 0.00 | 60 | 1015.4 |
| 20260509031933 | 56 | 201 | 15.0 | 25.0 | 0.00 | 0.00 | 0.00 | 61 | 1015.4 |
| 20260509031433 | 56 | 200 | 16.0 | 25.0 | 0.00 | 0.00 | 0.00 | 60 | 1015.5 |
| 20260509030933 | 56 | 192 | 9.0 | 27.0 | 0.00 | 0.00 | 0.00 | 61 | 1015.5 |
| 20260509030433 | 56 | 195 | 12.0 | 27.0 | 0.00 | 0.00 | 0.00 | 60 | 1015.5 |
| 20260509025933 | 56 | 196 | 9.0 | 25.0 | 0.00 | 0.00 | 0.00 | 60 | 1015.5 |
| 20260509025434 | 56 | 189 | 9.0 | 20.0 | 0.00 | 0.00 | 0.00 | 59 | 1015.6 |
| 20260509024933 | 56 | 190 | 4.0 | 22.0 | 0.00 | 0.00 | 0.00 | 59 | 1015.6 |
| 20260509024433 | 56 | 195 | 8.0 | 24.0 | 0.00 | 0.00 | 0.00 | 59 | 1015.5 |
| 20260509023933 | 57 | 191 | 10.0 | 24.0 | 0.00 | 0.00 | 0.00 | 57 | 1015.6 |
| 20260509023433 | 57 | 195 | 12.0 | 24.0 | 0.00 | 0.00 | 0.00 | 57 | 1015.6 |
| 20260509022933 | 57 | 192 | 11.0 | 22.0 | 0.00 | 0.00 | 0.00 | 57 | 1015.7 |
| 20260509022433 | 57 | 194 | 10.0 | 22.0 | 0.00 | 0.00 | 0.00 | 56 | 1015.6 |
| 20260509021933 | 57 | 186 | 8.0 | 17.0 | 0.00 | 0.00 | 0.00 | 55 | 1015.6 |
| 20260509021433 | 57 | 188 | 7.0 | 17.0 | 0.00 | 0.00 | 0.00 | 54 | 1015.7 |
| 20260509020933 | 57 | 196 | 7.0 | 12.0 | 0.00 | 0.00 | 0.00 | 54 | 1015.7 |
| 20260509020022 | 57 | 199 | 8.0 | 14.0 | 0.00 | 0.00 | 0.00 | 52 | 1015.9 |
| 20260509015524 | 57 | 188 | 6.0 | 21.0 | 0.00 | 0.00 | 0.00 | 54 | 1015.9 |
| 20260509015021 | 57 | 191 | 11.0 | 22.0 | 0.00 | 0.00 | 0.00 | 52 | 1015.8 |
| 20260509014521 | 57 | 190 | 11.0 | 22.0 | 0.00 | 0.00 | 0.00 | 52 | 1015.8 |
| 20260509014022 | 57 | 183 | 4.0 | 13.0 | 0.00 | 0.00 | 0.00 | 53 | 1015.9 |
| 20260509013524 | 57 | 190 | 5.0 | 13.0 | 0.00 | 0.00 | 0.00 | 52 | 1015.8 |
| 20260509013021 | 58 | 186 | 5.0 | 11.0 | 0.00 | 0.00 | 0.00 | 51 | 1015.7 |
| 20260509012523 | 58 | 183 | 3.0 | 10.0 | 0.00 | 0.00 | 0.00 | 50 | 1015.7 |
| 20260509012021 | 58 | 198 | 6.0 | 10.0 | 0.00 | 0.00 | 0.00 | 49 | 1015.8 |
| 20260509011524 | 58 | 195 | 5.0 | 9.0 | 0.00 | 0.00 | 0.00 | 49 | 1015.8 |
| 20260509010738 | 58 | 196 | 3.0 | 9.0 | 0.00 | 0.00 | 0.00 | 49 | 1015.7 |
| 20260509010241 | 58 | 199 | 4.0 | 9.0 | 0.00 | 0.00 | 0.00 | 48 | 1015.6 |
| 20260509005739 | 58 | 199 | 4.0 | 10.0 | 0.00 | 0.00 | 0.00 | 49 | 1015.6 |
| 20260509005238 | 58 | 202 | 5.0 | 10.0 | 0.00 | 0.00 | 0.00 | 48 | 1015.7 |
| 20260509004739 | 58 | 196 | 5.0 | 9.0 | 0.00 | 0.00 | 0.00 | 48 | 1015.6 |